User: anonymous   Login
Location: Unspecified
(0.0000°N, 0.0000°E)
Time: 12:17:58
(UTC+00:00)
Language:

Elektron 1 - Orbit

View from above orbital plane
View from above orbital plane
View from above satellite
View from above satellite

Ground track
Ground track

The orbit data is extracted from the following two-line orbital elements,

1   746U 64006A   17348.59137586 -.00000036 +00000-0 +70428-5 0  9996
2   746 060.8461 042.0570 3028043 152.9843 226.7692 09.03385450785926
Epoch (UTC): 14 December 2017 14:11:34
Eccentricity: 0.3028043
inclination: 60.8461°
perigee height: 411 km
apogee height: 6309 km
right ascension of ascending node: 42.0570°
argument of perigee: 152.9843°
revolutions per day: 9.03385450
mean anomaly at epoch: 226.7692°
orbit number at epoch: 78592

The dashed part of the orbit path shows where the satellite is in the earth's shadow,  

DLR